Regional Weather Roundup
Issued by NWS

Home | Current Version | Previous Version | Graphics & Text | Print | Product List | Glossary On
Versions: 1 2 3 4 5 6 7 8 9 10 11 12 13 14 15 16 17 18 19 20 21 22 23 24 25 26 27 28 29 30 31 32 33 34 35 36 37 38 39 40 41 42 43 44 45 46 47 48 49 50
000
ASUS45 KCYS 251910
RWRWY

WYOMING REGIONAL WEATHER ROUNDUP
NATIONAL WEATHER SERVICE CHEYENNE WY
100 PM MDT SAT MAR 25 2017

NOTE:  "FAIR" INDICATES FEW OR NO CLOUDS BELOW 12,000 FEET
WITH NO SIGNIFICANT WEATHER AND/OR OBSTRUCTIONS TO VISIBILITY.

WYZ001-252000-
YELLOWSTONE NATIONAL PARK

CITY           SKY/WX    TMP DP  RH WIND       PRES   REMARKS
LK YELLOWSTONE   N/A     37  25  61 VRB3      29.99F
W YELLOWSTONE  NOT AVBL

$$
WYZ002>013-054>058-071-098>099-252000-
NORTHERN WYOMING

CITY           SKY/WX    TMP DP  RH WIND       PRES   REMARKS
JACKSON        CLOUDY    39  34  81 S6        29.99F WCI  35
CODY           FAIR      50  30  46 N15       29.96F
GREYBULL       LGT RAIN  54  34  46 S3        29.92S
WORLAND        PTSUNNY   51  39  63 W6        29.92F
SHERIDAN       LGT RAIN  48  39  71 NW13      29.98F
BUFFALO        CLOUDY    51  33  50 N18G25    29.97F
GILLETTE         N/A    N/A N/A N/A MISG      29.92F
HULETT         FAIR      57  32  38 N8        29.93F
NEWCASTLE      FAIR      59  28  31 S10       29.90F

$$
WYZ014>020-022>026-101>103-252000-
CENTRAL WYOMING

CITY           SKY/WX    TMP DP  RH WIND       PRES   REMARKS
BIG PINEY      LGT RAIN  36  34  92 SE3       29.99F FOG
PINEDALE       LGT RAIN  36  34  93 S7        30.00S WCI  30
DUBOIS         CLOUDY    43  28  56 W7        29.93F
LANDER         PTSUNNY   53  32  44 E9        29.90F
RIVERTON       FAIR      53  32  44 CALM      29.92F
CASPER         FAIR      55  28  35 W9        29.93F
DOUGLAS        CLOUDY    57  30  35 NW7       29.93F

$$
WYZ021-027>030-104>119-252000-
SOUTHERN WYOMING

CITY           SKY/WX    TMP DP  RH WIND       PRES   REMARKS
EVANSTON       LGT SNOW  36  33  89 W5        29.99F FOG     WCI  32
KEMMERER       LGT SNOW  34  32  93 CALM      30.00F
FORT BRIDGER   CLOUDY    45  33  64 NW8       30.01F
ROCK SPRINGS   FAIR      49  30  48 S6        29.95F
DIXON            N/A     57  22  26 S10G21    29.98F
RAWLINS        FAIR      54  21  27 SW14G25   29.97F
SARATOGA       FAIR      54  21  28 NE6       29.98F
LARAMIE        FAIR      53  15  22 SW16      29.97F
CHEYENNE       FAIR      55  24  30 S16       29.97F
TORRINGTON     FAIR      60  29  30 S6        29.91F
PINE BLUFFS    FAIR      59  27  29 SW9G18    29.97F

$$



USA.gov is the U.S. government's official web portal to all federal, state and local government web resources and services.